Location: Bay Shore Mobile Home Park
(38.5762°N, 75.0841°W)
Time: 09:02:26
(UTC+00:00)

Cosmos 1833 Rocket - Pass Details

Date: 15 November 2025
Orbit: 829 x 840 km, 71.0° (Epoch: 04 December)

Event Time Altitude Azimuth Distance (km) Brightness Sun altitude
Rises 22:20:31 0° 339° (NNW) 3,401 5.9 -7.0°
Reaches altitude 10° 22:22:59 10° 341° (NNW) 2,463 5.1 -7.4°
Maximum altitude 22:28:38 72° 66° (ENE) 882 2.7 -8.5°
Drops below altitude 10° 22:34:14 10° 151° (SSE) 2,445 5.0 -9.5°
Sets 22:36:40 0° 154° (SSE) 3,375 5.7 -10.0°
